RH
53 68 73 78 76 71 88 93 77 68 71 96 87 80 77 59 92 95 34 42 46 48 78 100 92 88 76 74 45 61 85 97 99 98 100 100 100 100 100 99 100 99 100 100
46 58 67 72 81 89 92 92 100 93 96 86 100 91 78 70 78 99 67 26 23 40 69 100 95 95 68 79 67 54 99 79 96 100 100 100 100 100 79 96 97 100 100 100
40 43 46 62 68 70 80 92 84 94 99 98 100 93 74 69 55 96 98 45 30 48 64 100 100 100 100 100 82 71 89 86 91 100 96 100 100 100 100 99 100 98 100 100
41 42 42 48 60 75 85 98 84 79 99 100 100 92 85 70 51 69 99 59 41 54 55 100 100 100 100 100 100 87 92 93 86 100 100 99 100 100 100 100 100 100 100 100
46 41 38 50 58 68 94 100 98 91 100 97 100 93 78 57 61 30 91 86 52 57 57 91 100 97 79 91 93 98 89 81 94 100 100 100 100 100 98 98 99 100 100 100
44 41 43 53 58 61 84 94 100 99 74 96 100 100 61 51 69 36 63 100 64 65 62 61 100 100 93 67 82 70 95 82 87 91 93 91 99 100 100 100 99 99 100 100
42 43 40 48 51 57 65 70 98 99 84 89 85 94 68 39 69 44 46 100 100 78 68 73 62 100 98 99 61 77 82 62 52 78 89 89 97 90 100 99 95 94 97 100
37 38 39 46 44 47 55 65 84 94 85 85 59 30 34 39 66 52 36 100 100 99 91 92 90 76 100 100 96 77 70 58 74 91 91 90 93 90 100 100 100 100 100 98
32 32 33 32 37 39 46 52 55 73 91 93 72 36 29 35 39 61 40 100 100 100 100 100 95 78 80 100 99 100 100 100 100 100 100 99 99 100 100 100 100 100 99 98
23 22 23 25 28 30 33 37 54 55 72 97 89 82 42 31 36 42 45 98 100 100 100 100 100 96 92 68 97 98 100 100 100 100 99 98 98 98 100 99 98 100 100 100
15 14 14 16 19 21 21 24 28 42 64 65 96 98 95 36 41 45 45 65 100 100 100 100 100 100 99 100 100 83 68 83 100 100 100 100 100 100 100 100 100 100 100 100
15 14 12 20 27 29 20 18 18 24 29 60 70 100 100 73 51 50 45 51 100 100 100 100 100 100 100 100 99 94 92 92 80 88 94 93 93 96 97 96 95 97 100 100
17 29 38 34 38 41 33 28 21 17 18 24 46 69 95 100 94 56 47 44 52 97 100 100 100 100 100 100 100 100 98 96 95 97 92 86 86 90 95 100 100 100 100 100
41 39 51 53 45 48 43 42 34 24 20 16 20 36 80 83 92 93 68 44 41 48 96 100 100 100 100 100 100 100 100 100 100 99 97 97 99 100 100 100 100 100 96 82
63 66 49 40 55 57 48 42 37 30 27 22 16 17 30 47 48 75 90 59 43 43 81 100 100 100 100 100 100 100 100 100 100 100 100 100 100 100 97 94 88 75 65 43
70 77 78 66 61 76 69 60 49 42 37 34 26 18 16 28 27 31 71 84 46 41 54 100 100 100 100 100 100 100 100 100 100 100 100 98 97 98 98 89 74 52 39 37
53 68 100 75 56 54 66 74 62 60 53 47 44 28 17 14 19 23 26 79 78 48 40 95 100 99 98 100 100 100 100 100 100 100 100 100 100 95 82 68 48 46 51 55
65 86 56 45 50 60 85 74 56 64 61 52 55 50 33 18 16 18 22 27 85 67 44 79 100 100 93 96 100 100 100 100 100 100 100 100 100 93 65 59 64 71 78 84
96 86 66 62 74 80 78 94 71 55 70 47 60 72 65 39 21 17 17 22 32 72 54 58 100 100 99 93 100 100 97 100 100 100 100 100 100 79 70 76 89 95 95 89
96 96 78 69 74 84 85 74 63 50 62 37 54 66 72 65 42 23 18 18 21 33 57 65 96 100 100 100 100 100 100 100 100 100 100 100 100 99 99 99 100 100 100 98
90 80 88 97 85 92 90 97 90 69 47 54 64 54 68 63 61 42 20 18 19 24 32 61 80 100 100 100 100 100 100 100 100 100 100 100 100 100 100 100 100 100 100 100
99 100 100 92 92 100 100 100 98 64 50 53 62 63 59 56 48 49 39 20 23 22 31 68 100 100 100 100 100 100 100 100 100 100 100 100 100 100 100 100 100 100 100 94
100 100 94 86 98 100 100 100 100 90 80 84 84 88 90 96 79 45 52 41 30 29 34 79 100 100 100 100 100 100 100 100 100 100 100 100 100 100 100 100 100 100 97 92
100 100 100 99 95 100 100 100 100 100 100 98 86 86 95 88 89 67 59 64 40 34 36 79 100 100 100 100 100 100 100 100 100 100 100 100 100 100 100 100 100 99 96 89
99 91 98 100 100 100 100 100 100 97 96 79 90 98 100 100 100 100 82 79 84 100 86 100 100 100 100 100 100 100 100 100 100 100 100 100 100 100 100 100 100 100 92 48
100 100 99 99 100 100 100 99 100 99 99 83 91 100 100 100 100 98 87 100 100 100 100 98 93 100 100 100 100 100 100 100 100 100 100 100 100 100 100 100 93 52 28 22
100 100 100 100 100 100 100 100 95 93 82 96 100 100 100 100 100 100 100 100 100 100 100 100 100 100 100 100 100 100 100 100 100 100 100 100 100 100 90 49 28 25 24 22
Wind_Speed
41 37 39 36 31 28 33 32 39 28 32 33 29 26 27 25 25 20 19 20 22 26 27 22 17 6 8 11 10 9 5 4 6 16 12 20 11 31 30 34 41 39 37 33
43 39 40 38 29 30 33 31 35 34 30 37 25 26 25 24 23 20 19 21 22 22 24 18 11 6 9 9 10 10 3 4 8 17 9 17 12 20 22 22 27 35 41 31
43 42 39 33 33 31 29 31 31 33 34 32 29 24 23 24 21 19 16 18 18 17 20 16 12 8 10 5 14 11 5 4 7 15 20 12 19 15 31 26 23 23 17 21
42 41 38 36 34 28 25 26 28 30 27 26 28 22 23 22 20 20 17 15 15 14 16 13 11 10 10 12 8 13 9 5 8 11 22 21 24 19 24 18 19 24 24 24
40 41 38 33 31 29 31 30 29 28 25 25 27 22 21 22 19 17 18 13 13 11 12 13 9 10 8 5 7 12 12 7 10 8 17 9 17 17 23 20 20 16 22 20
40 39 35 30 27 27 30 29 26 31 27 25 24 21 20 20 19 16 16 14 11 11 10 10 7 7 7 7 4 16 14 12 13 9 13 16 17 14 16 20 14 21 19 21
37 34 32 29 26 27 32 32 29 28 26 25 23 20 21 22 21 16 13 10 9 10 8 8 8 5 4 6 4 9 12 15 14 11 15 24 15 14 12 16 20 19 15 16
37 35 33 30 23 26 28 30 30 31 31 29 27 26 23 22 20 17 12 13 10 11 8 7 6 5 1 0 7 8 9 11 14 14 18 23 21 27 19 16 15 17 19 19
38 37 35 36 29 28 30 31 32 29 32 32 31 29 24 22 20 18 14 12 10 12 13 10 4 3 1 5 9 10 9 8 10 11 15 16 23 16 17 19 17 15 16 17
42 37 36 36 35 36 34 34 33 33 33 33 32 33 30 25 22 18 18 13 9 7 9 11 11 6 4 3 4 7 10 12 11 12 10 14 15 13 14 18 19 20 18 17
44 44 43 40 42 38 36 37 37 33 32 33 35 33 33 29 25 21 19 17 13 8 6 4 7 10 10 8 6 5 5 6 13 16 15 14 13 12 14 14 15 15 15 13
44 46 44 38 37 38 41 40 41 39 36 34 33 36 35 32 30 27 22 21 19 14 10 4 4 8 10 13 12 11 13 12 11 15 17 16 16 15 14 13 13 13 16 17
45 42 40 42 40 40 40 39 41 44 41 38 37 35 37 35 35 32 28 24 23 20 14 8 7 9 9 10 11 11 11 12 13 15 15 14 13 13 14 15 15 16 15 14
39 40 33 36 35 34 35 35 33 40 45 45 42 40 39 39 36 38 33 28 24 23 19 13 12 12 14 13 12 12 12 12 12 13 14 14 15 15 14 14 13 13 13 14
35 36 33 27 32 34 34 32 27 27 34 43 47 42 43 42 39 39 38 33 29 25 24 19 16 14 15 15 15 15 15 15 15 14 14 13 13 13 13 13 14 15 15 16
36 39 42 36 32 35 33 31 29 23 24 28 36 44 44 44 41 40 40 38 33 30 29 25 22 19 18 16 17 16 16 17 17 17 16 16 15 15 16 16 17 17 17 18
35 39 38 30 27 29 32 33 31 28 26 21 26 32 42 44 42 41 41 40 38 37 32 30 25 23 22 19 18 18 18 18 18 18 17 18 18 18 18 18 18 19 20 22
42 28 28 26 23 25 28 33 31 27 25 24 24 27 31 37 40 41 41 40 41 39 35 36 29 27 25 22 19 19 19 21 21 20 20 20 19 19 20 20 20 22 23 24
31 25 26 29 32 32 31 35 35 24 28 25 22 25 27 29 35 37 40 40 39 40 39 38 35 29 28 25 23 22 22 21 22 21 21 21 20 21 22 23 24 25 25 26
28 27 29 35 38 36 34 37 23 19 29 27 22 21 24 26 30 32 36 39 39 41 42 38 40 32 27 27 25 25 25 24 25 25 25 25 24 26 26 27 27 27 28 29
20 22 29 31 29 24 25 17 7 19 23 23 25 26 24 25 25 30 34 37 38 40 42 40 40 31 28 26 25 26 28 27 28 28 27 26 27 29 30 30 30 32 33 33
23 25 24 25 19 7 7 10 11 11 8 7 10 13 17 20 22 24 30 34 37 39 41 41 35 29 26 24 26 27 28 29 30 31 31 32 34 34 33 33 33 34 34 36
22 17 17 17 13 8 7 9 8 5 6 7 8 9 12 15 16 18 25 30 33 36 40 43 36 28 27 20 22 26 27 28 30 34 35 36 37 37 36 35 35 36 37 39
17 13 14 12 11 7 4 2 3 3 5 9 13 15 14 14 15 12 17 22 26 32 37 38 41 31 24 19 20 25 28 28 29 30 33 36 36 36 36 35 35 37 40 41
15 14 12 11 8 6 4 4 6 3 7 5 6 5 6 11 12 15 16 20 24 21 27 32 34 31 27 24 19 20 25 26 28 30 32 34 35 36 35 34 37 40 40 40
13 16 15 14 12 8 6 1 2 5 5 6 6 4 6 8 10 10 18 26 19 20 16 22 27 25 24 21 22 22 24 24 26 28 32 34 35 34 35 38 38 38 40 41
9 13 16 18 17 13 10 8 11 12 10 7 4 11 15 14 10 11 17 9 9 10 8 12 16 21 22 21 20 21 23 24 26 28 31 32 34 35 34 36 39 41 44 46
Wind_Direction
304 303 300 297 298 290 284 287 280 290 283 291 287 291 299 311 323 313 310 318 323 327 333 332 330 279 264 252 254 268 284 251 218 194 214 224 216 213 205 216 208 204 211 213
301 303 299 301 296 282 281 283 275 280 282 281 287 279 293 302 302 325 314 315 316 327 336 339 352 353 272 245 255 249 224 225 205 193 159 174 172 197 215 201 203 207 199 194
303 300 299 301 294 291 280 269 273 280 279 277 271 272 287 287 297 320 315 313 319 328 338 339 328 332 322 283 231 250 204 178 202 172 155 172 174 169 182 169 158 170 174 169
301 298 299 298 296 291 281 273 272 276 280 269 260 265 280 282 295 297 320 308 315 326 338 347 335 328 333 322 222 216 217 164 169 172 172 176 166 182 177 180 180 179 186 196
301 297 296 298 290 286 283 275 265 261 266 273 260 262 275 281 287 299 315 292 303 315 333 345 337 4 6 346 186 201 189 198 219 209 190 167 164 190 187 198 208 201 211 221
299 296 300 302 294 287 282 280 272 260 262 264 265 265 268 277 280 294 299 289 287 307 327 341 350 2 13 16 207 170 175 172 176 143 206 187 182 202 197 187 195 213 217 233
297 300 297 298 293 280 276 278 279 266 254 253 262 260 265 272 270 282 298 292 276 289 304 326 337 327 25 68 94 180 174 166 177 225 196 179 202 192 188 217 230 229 231 221
298 299 298 298 291 278 276 275 275 273 259 252 257 263 263 264 268 275 285 293 253 260 274 295 316 354 305 129 150 145 167 174 182 187 184 209 213 213 224 207 196 216 203 217
292 294 293 291 286 277 276 275 273 268 263 256 251 258 255 260 265 267 275 287 261 255 259 268 275 285 31 182 162 162 176 186 204 211 213 210 196 211 216 212 210 206 219 242
294 296 291 287 281 275 275 274 276 272 265 258 254 252 257 250 253 257 267 269 245 233 237 253 256 224 206 191 176 181 201 206 199 191 192 198 201 198 199 209 222 226 244 256
294 288 282 281 280 276 274 276 275 274 270 261 255 254 252 249 242 246 251 254 253 260 206 225 240 239 211 207 211 214 220 203 200 191 187 188 189 193 205 218 227 239 248 254
292 289 285 282 274 273 271 268 266 263 262 264 258 251 250 246 244 240 236 242 248 258 260 247 268 239 235 231 232 230 221 217 211 207 208 204 201 203 214 227 238 253 257 248
290 287 288 287 289 287 281 271 266 264 261 252 250 247 249 248 243 243 240 232 239 245 250 256 275 278 249 231 233 228 223 215 214 216 221 226 229 233 237 238 234 230 230 238
295 296 301 300 297 293 289 287 273 261 261 256 249 243 242 243 240 239 239 236 229 237 237 237 254 269 266 244 233 230 230 222 212 208 208 208 210 211 212 215 223 233 246 256
299 301 305 305 298 295 295 294 290 274 263 256 253 246 239 240 238 236 233 231 228 229 232 234 240 248 257 250 235 232 233 231 230 225 219 217 217 219 223 229 237 244 248 256
302 304 305 307 298 295 290 287 289 282 266 263 256 249 242 236 237 235 234 226 227 226 224 228 236 238 242 257 243 237 239 239 235 230 226 226 228 230 233 237 241 247 257 268
304 308 300 299 301 301 294 284 267 270 273 264 257 250 246 241 237 233 231 229 222 225 221 218 226 240 241 244 245 239 244 243 240 237 236 235 235 237 241 244 251 262 273 280
302 295 298 304 305 305 298 293 285 253 250 256 254 247 244 240 238 231 229 226 224 219 219 213 216 234 238 240 246 241 239 237 234 239 245 244 243 245 250 257 267 277 283 289
294 288 295 297 308 308 296 296 285 268 233 231 244 239 245 236 234 232 227 223 222 220 217 214 210 223 231 234 240 245 239 239 244 252 258 253 250 253 261 268 278 283 288 291
302 299 293 296 300 300 297 301 270 245 224 221 224 236 245 247 231 228 225 222 218 216 218 213 212 219 223 233 240 247 247 244 248 254 259 258 254 256 261 270 276 280 283 287
326 313 307 311 312 310 310 307 225 191 212 219 226 237 243 248 243 224 220 218 217 215 215 210 214 221 220 223 232 242 249 249 251 253 254 258 261 263 268 272 275 278 281 286
324 328 334 339 332 348 45 81 148 177 196 223 237 242 244 248 253 242 220 214 214 214 212 206 207 218 220 221 229 241 251 254 253 253 254 254 255 261 266 268 271 276 280 287
342 343 355 5 16 47 76 96 118 161 197 216 230 250 277 264 245 248 231 216 212 212 210 205 203 214 212 221 234 241 248 251 254 255 257 261 265 265 266 268 273 277 284 291
343 348 3 17 25 40 86 144 186 204 238 255 260 263 277 247 213 207 222 218 211 208 207 206 210 212 211 224 236 240 242 247 255 258 260 263 264 266 268 270 274 282 288 289
23 26 27 34 39 30 28 91 128 80 17 310 2 308 232 199 184 178 186 186 165 176 198 202 211 218 228 236 250 253 251 251 254 256 258 259 263 267 268 274 282 286 287 289
32 36 36 46 45 37 35 114 270 315 8 55 105 79 90 134 149 156 167 165 172 179 196 213 219 227 240 248 252 252 254 255 257 260 263 265 265 267 274 281 284 286 287 289
58 56 55 54 49 42 41 45 62 77 105 70 60 128 133 143 126 140 171 196 167 167 180 216 217 220 239 256 259 259 259 260 262 264 266 269 273 277 280 281 283 285 287 289